{"data":{"norad_id":59184,"intl_designator":"2024-045G","name":"STARLINK-31382","alt_names":[],"object_type":"PAYLOAD","status":"ACTIVE","operator":null,"country":"US","launch_date":"2024-03-10","launch_site_code":"AFETR","launch_vehicle":null,"mission":null,"orbit_class":"UNKNOWN","rcs_meters":null,"size_class":null,"mass_kg":null,"dimensions":null,"purposes":["comms"],"wikipedia_slug":null,"has_3d_model":false,"image_url":null,"decayed_at":null,"tle_current":{"epoch":"2026-09-20T22:06:48.908160Z","epoch_age_seconds":122477,"freshness":"FRESH","line1":"1 59184U 24045G   26263.92139940  .00004257  00000+0  16427-3 0  9998","line2":"2 59184  43.0082  69.6265 0002544 273.0253  87.0308 15.27556734143028","mean_motion":15.27556734,"eccentricity":0.0002544,"inclination_deg":43.0082,"raan_deg":69.6265,"arg_perigee_deg":273.0253,"mean_anomaly_deg":87.0308,"bstar":0.00016427,"rev_number":14302,"period_min":94.268184477134,"perigee_km":481.3732602315,"apogee_km":484.86426716407,"semimajor_km":6861.2557636978,"source":"CELESTRAK","updated_at":"2026-09-21T09:00:34.062744Z"}}}